"Period start","avg(HW err(1)/warn(2) (#))","avg(Visibility (m))","avg(Weather code (#))","avg(Precip intensity (mm/h))","min(HW err(1)/warn(2) (#))","max(HW err(1)/warn(2) (#))","std(HW err(1)/warn(2) (#))","med(HW err(1)/warn(2) (#))","min(Visibility (m))","max(Visibility (m))","std(Visibility (m))","med(Visibility (m))","min(Weather code (#))","max(Weather code (#))","std(Weather code (#))","med(Weather code (#))","min(Precip intensity (mm/h))","max(Precip intensity (mm/h))","std(Precip intensity (mm/h))","med(Precip intensity (mm/h))"
2016-04-07 00:00:00,2,13920,71,0.07,2,2,0,2,6973,20758,4527,13525,71,71,0,71,0.00,0.20,0.07,0.03
2016-04-07 00:10:00,2,10651,71,0.11,2,2,0,2,7593,19826,3432,9927,71,71,0,71,0.00,0.25,0.08,0.10
2016-04-07 00:20:00,2,7146,71,0.27,2,2,0,2,3335,12028,2781,6610,71,71,0,71,0.05,0.60,0.22,0.17
2016-04-07 00:30:00,2,3408,71,0.68,2,2,0,2,1510,7030,1545,3397,71,71,0,71,0.15,1.65,0.46,0.57
2016-04-07 00:40:00,2,6697,71,0.20,2,2,0,2,3120,13036,2488,6500,71,71,0,71,0.00,0.60,0.20,0.12
2016-04-07 00:50:00,2,9019,71,0.21,2,2,0,2,5497,12817,2564,9521,71,71,0,71,0.00,0.65,0.22,0.15
2016-04-07 01:00:00,2,6404,71,0.23,2,2,0,2,3315,9587,1697,6293,71,71,0,71,0.00,0.55,0.17,0.17
2016-04-07 01:10:00,2,5447,71,0.33,2,2,0,2,3237,9970,2079,4650,71,71,0,71,0.00,1.20,0.36,0.17
2016-04-07 01:20:00,2,11376,71,0.11,2,2,0,2,7371,19332,3381,10666,71,71,0,71,0.00,0.30,0.10,0.10
2016-04-07 01:30:00,2,15050,71,0.07,2,2,0,2,5894,25065,5899,14746,71,71,0,71,0.00,0.50,0.15,0.00
2016-04-07 01:40:00,2,13099,71,0.14,2,2,0,2,5603,20064,4985,13946,71,71,0,71,0.00,0.70,0.21,0.03
2016-04-07 01:50:00,2,16516,50,0.07,2,2,0,2,8280,29173,7634,14962,0,71,33,71,0.00,0.45,0.13,0.00
2016-04-07 02:00:00,2,13084,71,0.22,2,2,0,2,5580,18851,5212,13546,71,71,0,71,0.00,0.85,0.31,0.08
2016-04-07 02:10:00,2,18165,71,0.14,2,2,0,2,8629,27230,6828,17966,71,71,0,71,0.00,0.95,0.28,0.03
2016-04-07 02:20:00,2,9459,71,0.09,2,2,0,2,7556,12138,1359,9374,71,71,0,71,0.00,0.25,0.07,0.05
2016-04-07 02:30:00,2,5380,71,0.13,2,2,0,2,3320,8235,1748,5557,71,71,0,71,0.00,0.55,0.16,0.10
2016-04-07 02:40:00,2,1728,71,0.41,2,2,0,2,974,3002,643,1430,71,71,0,71,0.05,1.45,0.40,0.25
2016-04-07 02:50:00,2,1843,71,0.28,2,2,0,2,1322,2982,538,1576,71,71,0,71,0.05,0.55,0.12,0.30
2016-04-07 03:00:00,2,4415,71,0.20,2,2,0,2,2666,7178,1523,4048,71,71,0,71,0.10,0.30,0.06,0.20
2016-04-07 03:10:00,2,5776,71,0.18,2,2,0,2,2821,8451,1713,6181,71,71,0,71,0.00,0.40,0.13,0.10
2016-04-07 03:20:00,2,4838,71,0.21,2,2,0,2,2615,5972,900,4918,71,71,0,71,0.05,0.40,0.12,0.20
2016-04-07 03:30:00,2,2477,71,0.32,2,2,0,2,2288,2724,136,2444,71,71,0,71,0.00,0.85,0.34,0.10
2016-04-07 03:40:00,2,2878,71,0.28,2,2,0,2,2181,3954,437,2841,71,71,0,71,0.00,1.00,0.35,0.10
2016-04-07 03:50:00,2,2449,71,0.06,2,2,0,2,2271,2733,188,2346,71,71,0,71,0.00,0.20,0.07,0.05
2016-04-07 04:00:00,2,2387,72,0.03,2,2,0,2,1853,2799,282,2374,71,77,2,71,0.00,0.05,0.02,0.05
2016-04-07 04:10:00,2,2533,77,0.04,2,2,0,2,2010,2970,341,2729,77,77,0,77,0.00,0.15,0.05,0.05
2016-04-07 04:20:00,2,2844,77,0.02,2,2,0,2,2159,3247,340,2948,77,77,0,77,0.00,0.05,0.02,0.00
2016-04-07 04:30:00,2,5034,77,0.01,2,2,0,2,3811,7816,1363,4336,77,77,0,77,0.00,0.05,0.02,0.00
2016-04-07 04:40:00,2,11199,77,0.01,2,2,0,2,7517,18905,3277,9554,77,77,0,77,0.00,0.05,0.02,0.00
2016-04-07 04:50:00,2,9964,77,0.01,2,2,0,2,4307,22024,5968,8434,77,77,0,77,0.00,0.05,0.02,0.00
2016-04-07 05:00:00,2,8037,77,0.02,2,2,0,2,6934,9665,801,7872,77,77,0,77,0.00,0.05,0.02,0.00
2016-04-07 05:10:00,2,6547,77,0.03,2,2,0,2,5495,7791,748,6661,77,77,0,77,0.00,0.05,0.03,0.03
2016-04-07 05:20:00,2,5706,77,0.06,2,2,0,2,4598,7205,977,5274,77,77,0,77,0.00,0.20,0.06,0.05
2016-04-07 05:30:00,2,6499,72,0.12,2,2,0,2,4766,7732,873,6580,71,77,2,71,0.00,0.20,0.07,0.12
2016-04-07 05:40:00,2,3984,76,0.06,2,2,0,2,2965,5786,783,3770,71,77,2,77,0.00,0.10,0.04,0.05
2016-04-07 05:50:00,2,6987,77,0.00,2,2,0,2,4611,10531,1549,7002,77,77,0,77,0.00,0.00,0.00,0.00
2016-04-07 06:00:00,2,3865,77,0.04,2,2,0,2,2328,6206,1350,3714,77,77,0,77,0.00,0.10,0.04,0.05
2016-04-07 06:10:00,2,2216,75,0.11,2,2,0,2,1664,2826,392,2266,71,77,3,77,0.05,0.30,0.08,0.08
2016-04-07 06:20:00,2,3001,76,0.06,2,2,0,2,1786,5457,1200,2516,71,77,2,77,0.00,0.15,0.04,0.05
2016-04-07 06:30:00,2,6025,57,0.00,2,2,0,2,3230,7960,1472,6333,10,77,31,77,0.00,0.00,0.00,0.00
2016-04-07 06:40:00,2,3993,42,0.00,2,2,0,2,2501,6484,1350,3799,10,77,32,40,0.00,0.00,0.00,0.00
2016-04-07 06:50:00,2,5600,77,0.00,2,2,0,2,3629,9888,1809,5372,77,77,0,77,0.00,0.00,0.00,0.00
2016-04-07 07:00:00,2,8920,30,0.00,2,2,0,2,7047,14349,2367,7673,10,77,31,10,0.00,0.00,0.00,0.00
2016-04-07 07:10:00,2,4170,10,0.00,2,2,0,2,3401,5272,552,4124,10,10,0,10,0.00,0.00,0.00,0.00
2016-04-07 07:20:00,2,8103,10,0.00,2,2,0,2,3233,16504,3993,7010,10,10,0,10,0.00,0.00,0.00,0.00
2016-04-07 07:30:00,2,19697,6,0.00,2,2,0,2,7880,32073,7791,19016,0,10,5,10,0.00,0.00,0.00,0.00
2016-04-07 07:40:00,2,12227,0,0.00,2,2,0,2,5700,24095,5931,10637,0,0,0,0,0.00,0.00,0.00,0.00
2016-04-07 07:50:00,2,18640,0,0.00,2,2,0,2,8375,38206,7974,17242,0,0,0,0,0.00,0.00,0.00,0.00
2016-04-07 08:00:00,2,21993,0,0.00,2,2,0,2,12908,39097,10273,16298,0,0,0,0,0.00,0.00,0.00,0.00
2016-04-07 08:10:00,2,14615,22,0.00,2,2,0,2,9969,19931,2960,13954,0,78,34,0,0.00,0.00,0.00,0.00
2016-04-07 08:20:00,2,17716,55,0.00,2,2,0,2,14679,22108,2207,18008,0,78,36,78,0.00,0.00,0.00,0.00
2016-04-07 08:30:00,2,19986,0,0.00,2,2,0,2,16901,24598,2068,20004,0,0,0,0,0.00,0.00,0.00,0.00
2016-04-07 08:40:00,2,30894,0,0.00,2,2,0,2,25326,42433,5949,28536,0,0,0,0,0.00,0.00,0.00,0.00
2016-04-07 08:50:00,2,39513,0,0.00,2,2,0,2,27422,49428,6707,41938,0,0,0,0,0.00,0.00,0.00,0.00
2016-04-07 09:00:00,2,31456,0,0.00,2,2,0,2,26310,34443,2384,31714,0,0,0,0,0.00,0.00,0.00,0.00
2016-04-07 09:10:00,2,35026,30,0.01,2,2,0,2,24043,42077,5859,36104,0,78,37,0,0.00,0.05,0.02,0.00
2016-04-07 09:20:00,2,36522,0,0.00,2,2,0,2,31790,40960,2586,36010,0,0,0,0,0.00,0.00,0.00,0.00
2016-04-07 09:30:00,2,37521,0,0.00,2,2,0,2,31887,45234,4437,36201,0,0,0,0,0.00,0.00,0.00,0.00
2016-04-07 09:40:00,2,37100,0,0.00,2,2,0,2,31092,45111,4496,36093,0,0,0,0,0.00,0.00,0.00,0.00
2016-04-07 09:50:00,2,43303,0,0.00,2,2,0,2,33168,49555,5395,44138,0,0,0,0,0.00,0.00,0.00,0.00
2016-04-07 10:00:00,2,43960,0,0.00,2,2,0,2,33135,50000,5897,46250,0,0,0,0,0.00,0.00,0.00,0.00
2016-04-07 10:10:00,2,46171,0,0.00,2,2,0,2,40443,50000,3176,46074,0,0,0,0,0.00,0.00,0.00,0.00
2016-04-07 10:20:00,2,42964,0,0.00,2,2,0,2,33549,50000,5826,44356,0,0,0,0,0.00,0.00,0.00,0.00
2016-04-07 10:30:00,2,29057,0,0.00,2,2,0,2,22799,39226,5534,28258,0,0,0,0,0.00,0.00,0.00,0.00
2016-04-07 10:40:00,2,39538,0,0.00,2,2,0,2,27665,47275,5645,40990,0,0,0,0,0.00,0.00,0.00,0.00
2016-04-07 10:50:00,2,46273,0,0.00,2,2,0,2,38440,50000,3637,47038,0,0,0,0,0.00,0.00,0.00,0.00
2016-04-07 11:00:00,2,43404,0,0.00,2,2,0,2,35324,50000,5243,44134,0,0,0,0,0.00,0.00,0.00,0.00
2016-04-07 11:10:00,2,29854,77,0.01,2,2,0,2,15764,45546,9892,31896,71,78,3,78,0.00,0.05,0.02,0.00
2016-04-07 11:20:00,2,43669,16,0.00,2,2,0,2,32222,50000,5239,45262,0,78,31,0,0.00,0.00,0.00,0.00
2016-04-07 11:30:00,2,43834,0,0.00,2,2,0,2,36459,50000,4334,44725,0,0,0,0,0.00,0.00,0.00,0.00
2016-04-07 11:40:00,2,47726,0,0.00,2,2,0,2,41965,50000,2677,48852,0,0,0,0,0.00,0.00,0.00,0.00
2016-04-07 11:50:00,2,45208,0,0.00,2,2,0,2,34164,50000,5092,46630,0,0,0,0,0.00,0.00,0.00,0.00
2016-04-07 12:00:00,2,48290,0,0.00,2,2,0,2,45888,50000,1478,48296,0,0,0,0,0.00,0.00,0.00,0.00
2016-04-07 12:10:00,2,49580,0,0.00,2,2,0,2,48089,50000,617,50000,0,0,0,0,0.00,0.00,0.00,0.00
2016-04-07 12:20:00,2,48826,0,0.00,2,2,0,2,43729,50000,1854,49630,0,0,0,0,0.00,0.00,0.00,0.00
2016-04-07 12:30:00,2,44139,0,0.00,2,2,0,2,39580,50000,3719,43716,0,0,0,0,0.00,0.00,0.00,0.00
2016-04-07 12:40:00,2,45944,0,0.00,2,2,0,2,42284,50000,2549,45486,0,0,0,0,0.00,0.00,0.00,0.00
2016-04-07 12:50:00,2,47887,0,0.00,2,2,0,2,44309,50000,1891,47886,0,0,0,0,0.00,0.00,0.00,0.00
2016-04-07 13:00:00,2,48708,0,0.00,2,2,0,2,43602,50000,2415,50000,0,0,0,0,0.00,0.00,0.00,0.00
2016-04-07 13:10:00,2,49422,0,0.00,2,2,0,2,47070,50000,1157,50000,0,0,0,0,0.00,0.00,0.00,0.00
2016-04-07 13:20:00,2,49796,0,0.00,2,2,0,2,48844,50000,413,50000,0,0,0,0,0.00,0.00,0.00,0.00
2016-04-07 13:30:00,2,49709,0,0.00,2,2,0,2,48252,50000,541,50000,0,0,0,0,0.00,0.00,0.00,0.00
2016-04-07 13:40:00,2,49466,0,0.00,2,2,0,2,47964,50000,740,50000,0,0,0,0,0.00,0.00,0.00,0.00
2016-04-07 13:50:00,2,49890,0,0.00,2,2,0,2,48900,50000,330,50000,0,0,0,0,0.00,0.00,0.00,0.00
2016-04-07 14:00:00,2,49341,0,0.00,2,2,0,2,45351,50000,1379,49970,0,0,0,0,0.00,0.00,0.00,0.00
2016-04-07 14:10:00,2,49602,0,0.00,2,2,0,2,47966,50000,701,50000,0,0,0,0,0.00,0.00,0.00,0.00
2016-04-07 14:20:00,2,49765,0,0.00,2,2,0,2,48349,50000,516,50000,0,0,0,0,0.00,0.00,0.00,0.00
2016-04-07 14:30:00,2,48794,0,0.00,2,2,0,2,46163,50000,1247,49324,0,0,0,0,0.00,0.00,0.00,0.00
2016-04-07 14:40:00,2,38895,0,0.00,2,2,0,2,0,50000,19495,48234,0,0,0,0,0.00,0.00,0.00,0.00
2016-04-07 14:50:00,2,49407,0,0.00,1,2,0,2,46960,50000,1004,50000,0,0,0,0,0.00,0.00,0.00,0.00
2016-04-07 15:00:00,2,49850,0,0.00,2,2,0,2,48900,50000,338,50000,0,0,0,0,0.00,0.00,0.00,0.00
2016-04-07 15:10:00,2,50000,0,0.00,2,2,0,2,50000,50000,0,50000,0,0,0,0,0.00,0.00,0.00,0.00
2016-04-07 15:20:00,2,49706,0,0.00,2,2,0,2,48053,50000,586,50000,0,0,0,0,0.00,0.00,0.00,0.00
2016-04-07 15:30:00,2,49270,0,0.00,2,2,0,2,47081,50000,1142,50000,0,0,0,0,0.00,0.00,0.00,0.00
2016-04-07 15:40:00,2,49101,0,0.00,2,2,0,2,45991,50000,1197,49578,0,0,0,0,0.00,0.00,0.00,0.00
2016-04-07 15:50:00,1,48838,0,0.00,1,2,0,1,45580,50000,1883,49886,0,0,0,0,0.00,0.00,0.00,0.00
2016-04-07 16:00:00,1,,,,1,1,0,1,,,,,,,,,,,,
2016-04-07 16:10:00,2,49569,,0.00,1,2,0,2,47847,50000,861,50000,,,,,0.00,0.00,0.00,0.00
2016-04-07 16:20:00,1,50000,,0.00,1,2,0,1,50000,50000,0,50000,,,,,0.00,0.00,0.00,0.00
2016-04-07 16:30:00,1,,,,1,1,0,1,,,,,,,,,,,,
2016-04-07 16:40:00,1,,,,1,1,0,1,,,,,,,,,,,,
2016-04-07 16:50:00,1,,,,1,1,0,1,,,,,,,,,,,,
2016-04-07 17:00:00,1,,,,1,1,0,1,,,,,,,,,,,,
2016-04-07 17:10:00,1,0,,0.00,1,2,0,1,0,0,0,0,,,,,0.00,0.00,0.00,0.00
2016-04-07 17:20:00,1,,,,1,1,0,1,,,,,,,,,,,,
2016-04-07 17:30:00,2,34397,0,0.00,1,2,0,2,0,50000,20042,44387,0,0,0,0,0.00,0.00,0.00,0.00
2016-04-07 17:40:00,2,47110,0,0.00,2,2,0,2,39913,50000,3216,47985,0,0,0,0,0.00,0.00,0.00,0.00
2016-04-07 17:50:00,2,48036,0,0.00,2,2,0,2,42726,50000,2299,48774,0,0,0,0,0.00,0.00,0.00,0.00
2016-04-07 18:00:00,1,49021,0,0.00,1,2,0,1,48800,49242,221,49021,0,0,0,0,0.00,0.00,0.00,0.00
2016-04-07 18:10:00,1,,,,1,1,0,1,,,,,,,,,,,,
2016-04-07 18:20:00,1,,,,1,1,0,1,,,,,,,,,,,,
2016-04-07 18:30:00,1,,,,1,1,0,1,,,,,,,,,,,,
2016-04-07 18:40:00,1,,,,1,1,0,1,,,,,,,,,,,,
2016-04-07 18:50:00,2,48088,,0.00,1,2,0,2,45900,50000,1845,48611,,,,,0.00,0.00,0.00,0.00
2016-04-07 19:00:00,2,49143,0,0.00,2,2,0,2,46696,50000,1216,50000,0,0,0,0,0.00,0.00,0.00,0.00
2016-04-07 19:10:00,2,42491,0,0.00,2,2,0,2,30193,50000,6593,44290,0,0,0,0,0.00,0.00,0.00,0.00
2016-04-07 19:20:00,2,47139,0,0.00,1,2,0,2,40062,50000,3094,47643,0,0,0,0,0.00,0.00,0.00,0.00
2016-04-07 19:30:00,1,,,,1,1,0,1,,,,,,,,,,,,
2016-04-07 19:40:00,1,,,,1,1,0,1,,,,,,,,,,,,
2016-04-07 19:50:00,1,,,,1,1,0,1,,,,,,,,,,,,
2016-04-07 20:00:00,1,,,,1,1,0,1,,,,,,,,,,,,
2016-04-07 20:10:00,1,,,,1,1,0,1,,,,,,,,,,,,
2016-04-07 20:20:00,1,,,,1,1,0,1,,,,,,,,,,,,
2016-04-07 20:30:00,1,,,,1,1,0,1,,,,,,,,,,,,
2016-04-07 20:40:00,1,,,,1,1,0,1,,,,,,,,,,,,
2016-04-07 20:50:00,2,43851,0,0.00,1,2,0,2,0,50000,15554,50000,0,0,0,0,0.00,0.00,0.00,0.00
2016-04-07 21:00:00,2,40426,0,0.00,2,2,0,2,34689,48414,4365,40958,0,0,0,0,0.00,0.00,0.00,0.00
2016-04-07 21:10:00,2,41858,0,0.00,2,2,0,2,35471,47688,4173,41412,0,0,0,0,0.00,0.00,0.00,0.00
2016-04-07 21:20:00,2,43815,0,0.00,2,2,0,2,36175,50000,5041,45060,0,0,0,0,0.00,0.00,0.00,0.00
2016-04-07 21:30:00,2,45458,0,0.00,2,2,0,2,39522,50000,3293,46334,0,0,0,0,0.00,0.00,0.00,0.00
2016-04-07 21:40:00,2,43830,0,0.00,2,2,0,2,31518,49823,5269,44986,0,0,0,0,0.00,0.00,0.00,0.00
2016-04-07 21:50:00,2,45826,0,0.00,1,2,0,2,42197,49398,2306,45516,0,0,0,0,0.00,0.00,0.00,0.00
2016-04-07 22:00:00,1,,,,1,1,0,1,,,,,,,,,,,,
2016-04-07 22:10:00,2,34480,,0.00,1,2,0,2,0,50000,16392,39750,,,,,0.00,0.00,0.00,0.00
2016-04-07 22:20:00,2,37637,0,0.00,2,2,0,2,22030,50000,8618,38036,0,0,0,0,0.00,0.00,0.00,0.00
2016-04-07 22:30:00,2,36955,0,0.00,2,2,0,2,32220,45041,3995,35589,0,0,0,0,0.00,0.00,0.00,0.00
2016-04-07 22:40:00,2,37951,0,0.00,2,2,0,2,31755,47307,5351,36012,0,0,0,0,0.00,0.00,0.00,0.00
2016-04-07 22:50:00,2,37188,0,0.00,2,2,0,2,24479,49047,6653,35864,0,0,0,0,0.00,0.00,0.00,0.00
2016-04-07 23:00:00,2,40345,0,0.00,2,2,0,2,31555,50000,7072,38857,0,0,0,0,0.00,0.00,0.00,0.00
2016-04-07 23:10:00,2,38849,0,0.00,2,2,0,2,28420,50000,7606,39612,0,0,0,0,0.00,0.00,0.00,0.00
2016-04-07 23:20:00,2,32550,0,0.00,2,2,0,2,23850,42646,5052,33148,0,0,0,0,0.00,0.00,0.00,0.00
2016-04-07 23:30:00,2,33518,0,0.00,2,2,0,2,26642,44032,5975,32315,0,0,0,0,0.00,0.00,0.00,0.00
2016-04-07 23:40:00,2,36669,0,0.00,2,2,0,2,20759,50000,11474,33644,0,0,0,0,0.00,0.00,0.00,0.00
2016-04-07 23:50:00,2,37126,0,0.00,2,2,0,2,21089,50000,9978,38357,0,0,0,0,0.00,0.00,0.00,0.00
